[[{"header":{"parameterUnit":"m.s-1","parameterCategory":1,"la1":30.2991,"la2":30.254,"lo1":-89.0895,"lo2":-89.0444,"dy":0.0017,"dx":0.0017,"nx":28,"ny":28,"refTime":"2025-04-13T09:00:00:Z","depth":0,"parameterNumber":2,"parameterNumberName":"U-component_of_WINDS"},"data":[0,0,0,0,0,0,0,0,0,0,0,0,0,0,0,0,0,0,0,0,0,0,0,0,0,0,0,0,0,0,0,0,0,0,0,0,0,0,0,0,0,0,0,0,0,0,0,0,0,0,0,0,0,0,0,0,0,0,3.2373,3.2374,0,3.2474,3.2475,3.2476,3.2447,3.2445,3.2443,3.2441,3.2542,3.2546,3.2551,0,0,0,0,0,0,0,0,0,0,0,0,0,3.2149,3.2153,3.2373,3.2374,3.2375,3.2474,3.2475,3.2476,3.2447,3.2445,3.2442,3.244,3.254,3.2545,3.2551,0,0,0,0,0,0,0,0,0,0,0,0,0,3.2248,3.2155,3.2373,3.2373,3.2374,3.2473,3.2475,3.2477,3.2448,3.2445,3.2442,3.2439,3.2538,3.2545,3.2552,3.2657,0,0,3.2573,3.2576,0,0,0,0,0,0,0,0,3.2242,3.2256,3.2371,3.2373,3.2374,3.2445,3.2433,3.2537,3.2449,3.242,3.2441,3.2437,3.2512,3.2521,3.2546,3.2661,3.2666,3.2574,3.2578,3.2581,3.2583,0,0,0,0,0,0,0,3.2235,3.2251,3.2413,3.2373,3.2375,3.2366,3.2376,3.2453,3.2482,3.2422,3.242,3.2432,3.2512,3.254,3.2548,3.2667,3.2573,3.258,3.2584,3.2586,3.2867,3.287,0,0,0,0,0,0,3.2228,3.2246,3.241,3.2416,3.2299,3.2372,3.2384,3.2425,3.2481,3.2486,3.2435,3.2431,3.2529,3.254,3.2552,3.2674,3.2581,3.2587,3.2591,3.2864,3.2868,3.2872,0,0,0,0,0,0,3.2224,3.2243,3.2405,3.233,3.235,3.238,3.2426,3.2429,3.2457,3.2491,3.2495,3.2458,3.2527,3.2542,3.263,3.2677,3.259,3.2597,3.286,3.2865,3.287,3.2921,0,0,0,0,0,0,3.2217,3.2242,3.2283,3.2332,3.2355,3.2483,3.2429,3.2433,3.2469,3.2464,3.2514,3.2519,3.2526,3.2619,3.2637,3.2685,3.2602,3.2856,3.2862,3.2868,3.2916,3.2928,3.2938,0,0,0,0,0,3.2209,3.2295,3.2286,3.2306,3.2408,3.2486,3.2499,3.2506,3.2473,3.2514,3.2535,3.2518,3.267,3.2629,3.2648,3.2699,3.2853,3.2861,3.2868,3.2911,3.2925,3.2938,0,0,0,0,0,0,3.2251,3.2301,3.2292,3.2396,3.2437,3.2481,3.2533,3.2522,3.2573,3.2567,3.2572,3.2584,3.2672,3.2695,3.2648,3.28,3.2756,3.2768,3.2782,3.2796,3.2807,3.2798,3.2608,0,0,0,0,0,3.2273,3.2334,3.2374,3.2461,3.2482,3.2504,3.2539,3.254,3.2583,3.26,3.2628,3.2669,3.2725,3.2763,3.2817,3.2919,3.2927,3.2964,3.2975,3.2984,3.2993,3.3043,3.3058,3.2896,3.2896,3.2896,0,0,3.2317,3.2352,3.239,3.247,3.2503,3.2563,3.2519,3.2587,3.263,3.261,3.2693,3.2715,3.2761,3.2855,3.2898,3.2877,3.3039,3.2993,3.3,3.3004,3.3052,3.3067,3.3081,3.2901,3.29,3.2899,0,0,3.2428,3.2463,3.2537,3.257,3.2619,3.2632,3.265,3.2696,3.2709,3.2793,3.2777,3.2829,3.2928,3.296,3.2989,3.3108,3.3092,3.3126,3.3182,3.3232,3.3244,3.3256,3.3294,3.3308,3.3135,3.3135,3.3135,0,3.2477,3.257,3.2576,3.2644,3.2677,3.2662,3.2734,3.2766,3.283,3.2852,3.2828,3.2948,3.2978,3.3077,3.3105,3.3131,3.3148,3.3119,3.3242,3.3254,3.3264,3.33,3.3315,3.3139,3.3138,3.3138,3.3138,0,3.2624,3.2688,3.2742,3.2803,3.2843,3.2914,3.2928,3.2968,3.2965,3.298,3.3063,3.3098,3.3157,3.3181,3.318,3.3278,3.3263,3.3241,3.3196,3.3283,3.3316,3.3331,3.3143,3.3142,3.3141,3.314,0,0,3.2765,3.2827,3.2846,3.2872,3.2923,3.2972,3.3039,3.3097,3.3128,3.3173,3.3227,3.3309,3.3287,3.332,3.3322,3.3366,3.3451,3.3337,3.3338,3.3353,3.3556,3.357,3.3586,3.3442,3.3445,3.3447,3.3551,0,3.2877,3.2997,3.3003,3.3111,3.3167,3.3151,3.3209,3.3246,3.3261,3.3309,3.3326,3.3382,3.3352,3.3371,3.3414,3.3432,3.3492,3.3425,3.3489,3.3491,3.3474,3.3605,3.362,3.3716,3.3565,3.3567,3.3569,0,3.3024,3.3071,3.3184,3.3223,3.3247,3.33,3.335,3.3398,3.3438,3.3445,3.348,3.3475,3.3541,3.3495,3.3584,3.3538,3.3565,3.3577,3.3581,3.3585,3.3533,3.3607,3.3748,3.376,3.359,3.3589,3.3587,0,3.3109,3.3202,3.3279,3.3302,3.3352,3.3388,3.341,3.3446,3.3479,3.3523,3.3543,3.3595,3.3622,3.3661,3.3668,3.3635,3.3755,3.3711,3.376,3.3759,3.3783,3.3781,3.3926,3.3807,3.3807,3.3807,3.3806,0,3.3231,3.33,3.3318,3.3365,3.344,3.3446,3.3519,3.3539,3.3571,3.3619,3.361,3.3656,3.3665,3.3711,3.3718,3.3787,3.3801,3.3806,3.3806,3.3805,3.3803,3.382,3.3812,3.3811,3.381,3.3809,3.3808,0,3.3338,3.3354,3.3437,3.3476,3.3487,3.354,3.3572,3.3616,3.363,3.3691,3.3706,3.3727,3.3781,3.3793,3.3858,3.3861,3.3942,3.3938,3.3929,3.3927,3.3973,3.3967,3.413,3.415,3.4022,3.4023,3.4024,0,3.3414,3.3465,3.3509,3.3541,3.3565,3.3617,3.365,3.3657,3.3691,3.3737,3.3775,3.3828,3.387,3.3957,3.3977,3.4025,3.4019,3.4073,3.4026,3.4021,3.4014,3.4009,3.4012,3.4081,3.4082,3.4083,3.4084,0,3.3544,3.3548,3.3596,3.3645,3.3684,3.3724,3.3761,3.3788,3.3799,3.3838,3.3893,3.3926,3.399,3.4041,3.4089,3.4109,3.4097,3.4099,3.4112,3.4109,3.41,3.4101,3.3949,3.4094,3.4093,3.4093,3.4092,3.4092,3.3634,3.3677,3.3714,3.3766,3.3795,3.3829,3.3871,3.3889,3.3936,3.3989,3.399,3.4049,3.4083,3.4145,3.4168,3.4213,3.4195,3.4216,3.422,3.4224,3.4225,3.4096,3.4222,3.4222,3.4221,3.4221,3.4221,0,3.376,3.3782,3.383,3.3882,3.3922,3.3909,3.3948,3.3982,3.4034,3.4068,3.4109,3.417,3.4219,3.4241,3.4289,3.4319,3.4315,3.4331,3.4327,3.4331,3.4241,3.4222,3.4334,3.4334,3.4334,3.4334,3.4334,3.4334,3.3829,3.3901,3.3909,3.3993,3.4014,3.4072,3.4095,3.4125,3.4151,3.4219,3.426,3.4275,3.4302,3.4351,3.4394,3.4399,3.4415,3.4433,3.4435,3.435,3.4338,3.4327,3.431,3.4438,3.4438,3.4521,3.4522,3.4523]},{"header":{"parameterUnit":"m.s-1","parameterCategory":1,"la1":30.2991,"la2":30.254,"lo1":-89.0895,"lo2":-89.0444,"dy":0.0017,"dx":0.0017,"nx":28,"ny":28,"refTime":"2025-04-13T09:00:00:Z","depth":0,"parameterNumber":3,"parameterNumberName":"V-component_of_WINDS"},"data":[0,0,0,0,0,0,0,0,0,0,0,0,0,0,0,0,0,0,0,0,0,0,0,0,0,0,0,0,0,0,0,0,0,0,0,0,0,0,0,0,0,0,0,0,0,0,0,0,0,0,0,0,0,0,0,0,0,0,3.6841,3.6842,0,3.6892,3.6893,3.6894,3.6831,3.6829,3.6826,3.6824,3.6875,3.6879,3.6882,0,0,0,0,0,0,0,0,0,0,0,0,0,3.6685,3.6688,3.6841,3.6842,3.6842,3.6892,3.6893,3.6894,3.6831,3.6829,3.6826,3.6823,3.6874,3.6878,3.6882,0,0,0,0,0,0,0,0,0,0,0,0,0,3.6746,3.6689,3.6841,3.6817,3.6816,3.6892,3.6893,3.6894,3.6832,3.6829,3.6825,3.6822,3.6873,3.6878,3.6883,3.6985,0,0,3.6899,3.6901,0,0,0,0,0,0,0,0,3.6743,3.6752,3.682,3.6819,3.6817,3.6852,3.6857,3.6924,3.6833,3.6826,3.6824,3.682,3.687,3.6875,3.6892,3.6987,3.6989,3.6899,3.6903,3.6905,3.6906,0,0,0,0,0,0,0,3.6739,3.6749,3.6861,3.6821,3.682,3.6803,3.6808,3.6869,3.6867,3.6826,3.6822,3.6829,3.6869,3.6888,3.6893,3.699,3.6899,3.6904,3.6907,3.6909,3.7166,3.717,0,0,0,0,0,0,3.6738,3.6746,3.686,3.6863,3.6771,3.6808,3.6814,3.6844,3.6866,3.6866,3.6832,3.6826,3.688,3.6887,3.6895,3.7013,3.6905,3.691,3.6913,3.7162,3.7167,3.7171,0,0,0,0,0,0,3.6734,3.6748,3.6858,3.6803,3.6816,3.6815,3.6849,3.6847,3.6866,3.687,3.6869,3.6852,3.6878,3.6887,3.6962,3.7014,3.6912,3.6917,3.7158,3.7164,3.7169,3.7251,0,0,0,0,0,0,3.673,3.6748,3.6787,3.6805,3.6819,3.6925,3.6853,3.6851,3.6875,3.6868,3.6889,3.6889,3.6876,3.6954,3.6967,3.7019,3.6921,3.7153,3.7161,3.7167,3.7243,3.7258,3.7271,0,0,0,0,0,3.6725,3.6809,3.679,3.6804,3.6869,3.6929,3.6937,3.6921,3.688,3.6919,3.6921,3.6888,3.7006,3.6963,3.6976,3.7031,3.715,3.7159,3.7167,3.7237,3.7256,3.7271,0,0,0,0,0,0,3.6798,3.6811,3.679,3.6882,3.6905,3.6918,3.6967,3.6941,3.6976,3.6967,3.6945,3.695,3.7029,3.7037,3.6989,3.7128,3.7071,3.7083,3.712,3.7137,3.7151,3.7147,3.6925,0,0,0,0,0,3.6825,3.6873,3.6881,3.6962,3.6974,3.6969,3.6994,3.698,3.7002,3.7011,3.7019,3.7041,3.7082,3.711,3.7149,3.7244,3.7246,3.7288,3.7302,3.7313,3.7323,3.7371,3.7389,3.7198,3.7198,3.7198,0,0,3.6881,3.6893,3.6925,3.6976,3.6992,3.7041,3.6977,3.7032,3.7067,3.7019,3.7089,3.7096,3.7119,3.7203,3.7241,3.7212,3.7376,3.7324,3.7333,3.7337,3.7381,3.7399,3.7415,3.7204,3.7203,3.7202,0,0,3.7007,3.7023,3.709,3.7106,3.7131,3.7126,3.7142,3.7159,3.7161,3.7232,3.7195,3.7236,3.731,3.7327,3.7345,3.7474,3.7444,3.7488,3.756,3.7607,3.7622,3.7635,3.7679,3.7695,3.7498,3.7498,3.7498,0,3.7073,3.7146,3.7128,3.7184,3.7207,3.7165,3.7231,3.7248,3.7284,3.73,3.7268,3.7356,3.7369,3.7455,3.7487,3.7504,3.752,3.7485,3.7621,3.7634,3.7646,3.7688,3.7705,3.7503,3.7502,3.7502,3.7501,0,3.7225,3.7276,3.7327,3.7362,3.739,3.7452,3.7441,3.7471,3.7454,3.7452,3.7522,3.7536,3.7575,3.7595,3.7579,3.7678,3.7659,3.7625,3.7567,3.767,3.7708,3.7724,3.751,3.7508,3.7507,3.7505,0,0,3.74,3.7422,3.7441,3.7455,3.7477,3.7516,3.7574,3.7612,3.7638,3.7663,3.771,3.7772,3.7739,3.776,3.7745,3.7786,3.7884,3.7746,3.7746,3.7769,3.7992,3.8017,3.8036,3.7865,3.7868,3.787,3.7989,0,3.7525,3.7626,3.761,3.7707,3.7752,3.7712,3.7762,3.778,3.778,3.7817,3.7816,3.7859,3.7813,3.7825,3.7864,3.7864,3.7929,3.7856,3.7907,3.7909,3.7901,3.8056,3.8083,3.8195,3.8004,3.8007,3.8009,0,3.7684,3.7714,3.7816,3.7829,3.7847,3.7893,3.7925,3.7962,3.7981,3.7977,3.7999,3.7976,3.8032,3.7973,3.8049,3.8,3.8019,3.8022,3.8026,3.8029,3.7964,3.8062,3.823,3.8247,3.8033,3.8031,3.8029,0,3.7799,3.7865,3.7934,3.7947,3.7964,3.7997,3.8005,3.8021,3.8044,3.8072,3.8086,3.812,3.8139,3.8165,3.8151,3.811,3.8228,3.8169,3.8225,3.8225,3.8251,3.825,3.8424,3.8267,3.8266,3.8266,3.8266,0,3.7939,3.8002,3.7985,3.8027,3.8096,3.8076,3.8144,3.8147,3.8161,3.8202,3.8169,3.8208,3.8187,3.8224,3.8213,3.8276,3.8285,3.8282,3.8278,3.8285,3.8285,3.8296,3.8288,3.827,3.8269,3.8269,3.8268,0,3.8078,3.807,3.8141,3.8151,3.8154,3.8205,3.8212,3.825,3.8246,3.8298,3.8309,3.8303,3.8344,3.8332,3.8378,3.837,3.8449,3.8436,3.8442,3.8438,3.8494,3.8488,3.8681,3.8704,3.8533,3.8535,3.8537,0,3.8168,3.8215,3.8229,3.8254,3.8265,3.8306,3.8328,3.831,3.8335,3.8358,3.8393,3.8431,3.8461,3.8528,3.8527,3.856,3.8547,3.8612,3.8552,3.8555,3.8545,3.8542,3.8546,3.8624,3.8626,3.8627,3.8628,0,3.8327,3.8319,3.8354,3.8386,3.8414,3.8439,3.8461,3.8483,3.8465,3.8494,3.8536,3.8558,3.8603,3.8641,3.8671,3.8678,3.865,3.8647,3.8662,3.8668,3.8669,3.8667,3.8473,3.8643,3.8641,3.864,3.864,3.8639,3.8442,3.8482,3.8497,3.8535,3.8549,3.8569,3.8605,3.8605,3.8639,3.8674,3.8661,3.8708,3.8722,3.876,3.8771,3.8806,3.8781,3.8802,3.8807,3.8813,3.8819,3.8664,3.8812,3.8811,3.8811,3.881,3.881,0,3.8598,3.8605,3.864,3.8671,3.8701,3.8671,3.8693,3.8719,3.8761,3.8778,3.8807,3.8853,3.8889,3.8889,3.8922,3.895,3.8938,3.8959,3.8956,3.8958,3.884,3.8824,3.8969,3.8969,3.8968,3.8968,3.8968,3.8968,3.8682,3.8745,3.8739,3.8809,3.8815,3.8861,3.8875,3.8893,3.8905,3.8958,3.8988,3.8988,3.8997,3.903,3.906,3.9059,3.9072,3.9098,3.9093,3.8982,3.8967,3.8951,3.8936,3.9102,3.9102,3.9207,3.9208,3.9209]}]]